SR5NLK-1 Weather Reports


Display with metric or nautical units.
time (UTC)temp
F
wind
direction
speed
MPH
gust
MPH
rain 1hr
in
rain 24hr
in
rain mn
in
humidity
%
barometer
mb
20260509004224 48 292 2.0 3.0 0.00 0.00 0.00 86 1084.7
20260509003724 48 270 1.0 3.0 0.00 0.00 0.00 86 1007.3
20260509003224 48 270 1.0 5.0 0.00 0.00 0.00 86 1039.7
20260509002724 48 292 5.0 5.0 0.00 0.00 0.00 86 1010.4
20260509002224 48 315 2.0 5.0 0.00 0.00 0.00 85 1036.5
20260509002123 48 270 2.0 5.0 0.00 0.00 0.00 85 1039.6
20260509001724 48 337 2.0 6.0 0.00 0.00 0.00 86 1046.0
20260509001224 48 292 3.0 5.0 0.00 0.00 0.00 85 1036.6
20260509000725 48 292 2.0 4.0 0.00 0.00 0.00 85 1004.1
20260509000226 48 0 2.0 4.0 0.00 0.00 0.00 85 1016.6
20260508235724 48 292 3.0 5.0 0.00 0.00 0.00 85 1052.2
20260508235224 48 337 3.0 6.0 0.00 0.00 0.00 85 1078.3
20260508234823 48 292 4.0 7.0 0.00 0.00 0.00 85 1094.1
20260508234724 48 315 4.0 7.0 0.00 0.00 0.00 85 991.6
20260508234224 48 315 6.0 6.0 0.00 0.00 0.00 85 1042.8
20260508233724 48 292 2.0 6.0 0.00 0.00 0.00 84 1039.7
20260508233224 48 315 4.0 4.0 0.00 0.00 0.00 84 1036.5
20260508232724 48 315 3.0 5.0 0.00 0.00 0.00 84 1087.8
20260508232427 48 315 1.0 4.0 0.00 0.00 0.00 84 1084.6
20260508232224 48 315 1.0 4.0 0.00 0.00 0.00 84 1084.6
20260508231724 48 270 0.0 5.0 0.00 0.00 0.00 84 1042.8
20260508231224 48 315 5.0 5.0 0.00 0.00 0.00 84 1084.7
20260508230724 48 315 4.0 5.0 0.00 0.00 0.00 84 1058.4
20260508230224 48 315 3.0 3.0 0.00 0.00 0.00 84 946.3
20260508225724 48 292 2.0 4.0 0.00 0.00 0.00 84 1001.0
20260508225224 48 315 2.0 3.0 0.00 0.00 0.00 84 1010.4
20260508224724 48 292 2.0 3.0 0.00 0.00 0.00 84 1049.1
20260508224223 48 315 3.0 4.0 0.00 0.00 0.00 84 997.9
20260508223724 48 292 4.0 4.0 0.00 0.00 0.00 84 1081.5
20260508223224 48 292 3.0 6.0 0.00 0.00 0.00 84 971.7
20260508222724 48 315 1.0 3.0 0.00 0.00 0.00 84 1039.7
20260508222224 48 0 1.0 4.0 0.00 0.00 0.00 84 1055.4
20260508221724 48 292 2.0 5.0 0.00 0.00 0.00 84 1097.2
20260508221224 48 315 4.0 4.0 0.00 0.00 0.00 84 1039.7
20260508220923 48 315 2.0 4.0 0.00 0.00 0.00 84 1049.1
20260508220724 48 337 4.0 4.0 0.00 0.00 0.00 84 1094.0
20260508220224 48 0 2.0 5.0 0.00 0.00 0.00 83 1049.1
20260508215724 48 292 4.0 7.0 0.00 0.00 0.00 83 1097.2
20260508215224 48 135 0.0 6.0 0.00 0.00 0.00 83 965.4
20260508214725 48 292 5.0 7.0 0.00 0.00 0.00 83 953.2
20260508214224 48 337 2.0 7.0 0.00 0.00 0.00 83 1081.5
20260508213724 48 315 5.0 9.0 0.00 0.00 0.00 83 1036.6
20260508213623 48 292 5.0 9.0 0.00 0.00 0.00 83 1036.6
20260508213224 48 337 3.0 5.0 0.00 0.00 0.00 83 1008.4
20260508212724 49 292 2.0 6.0 0.00 0.00 0.00 83 1090.9
20260508212224 49 315 4.0 6.0 0.00 0.00 0.00 83 1013.5
20260508211724 49 292 5.0 7.0 0.00 0.00 0.00 83 1069.0
20260508211224 49 0 4.0 5.0 0.00 0.00 0.00 83 1001.0
20260508210724 49 0 2.0 6.0 0.00 0.00 0.00 82 1027.9
20260508210323 49 337 1.0 5.0 0.00 0.00 0.00 82 1058.5
20260508210224 49 315 3.0 5.0 0.00 0.00 0.00 82 1016.6
20260508205724 49 22 3.0 6.0 0.00 0.00 0.00 82 1049.1
20260508205225 49 337 3.0 6.0 0.00 0.00 0.00 82 1007.2
20260508204724 49 337 5.0 8.0 0.00 0.00 0.00 82 1046.0
20260508204224 49 292 5.0 6.0 0.00 0.00 0.00 82 965.2
20260508203724 49 0 5.0 5.0 0.00 0.00 0.00 82 1036.6
20260508203224 49 315 1.0 5.0 0.00 0.00 0.00 81 1052.2
20260508203023 49 337 4.0 5.0 0.00 0.00 0.00 81 1094.0
20260508202724 49 0 3.0 5.0 0.00 0.00 0.00 81 1049.1
20260508202224 49 270 0.0 6.0 0.00 0.00 0.00 81 997.9
20260508201724 49 315 4.0 6.0 0.00 0.00 0.00 82 1004.1
20260508201224 49 0 2.0 5.0 0.00 0.00 0.00 82 1030.3
20260508200724 49 337 2.0 5.0 0.00 0.00 0.00 82 1075.3
20260508200224 49 22 2.0 5.0 0.00 0.00 0.00 82 1075.3
20260508195723 49 292 2.0 5.0 0.00 0.00 0.00 82 1042.8
20260508195224 49 292 0.0 7.0 0.00 0.00 0.00 82 1030.2
20260508194724 49 292 7.0 7.0 0.00 0.00 0.00 82 980.9
20260508194224 49 292 4.0 5.0 0.00 0.00 0.00 82 1024.0
20260508193724 49 315 1.0 5.0 0.00 0.00 0.00 82 1065.8
20260508193224 50 337 3.0 5.0 0.00 0.00 0.00 82 1087.8
20260508192724 49 315 3.0 3.0 0.00 0.00 0.00 82 1042.8
20260508192423 50 0 0.0 7.0 0.00 0.00 0.00 82 1049.9
20260508192224 50 0 0.0 7.0 0.00 0.00 0.00 82 1081.5
20260508191724 50 337 0.0 5.0 0.00 0.00 0.00 82 1007.3
20260508191224 50 22 2.0 6.0 0.00 0.00 0.00 82 1087.8
20260508190724 50 337 6.0 6.0 0.00 0.00 0.00 82 1078.3
20260508190224 50 22 2.0 6.0 0.00 0.00 0.00 82 988.4
20260508185724 50 0 5.0 5.0 0.00 0.00 0.00 83 1072.3
20260508185224 50 315 2.0 5.0 0.00 0.00 0.00 83 1084.7
20260508185124 50 0 3.0 5.0 0.00 0.00 0.00 83 1094.1
20260508184725 50 337 4.0 5.0 0.00 0.00 0.00 83 1081.5
20260508184224 50 45 3.0 6.0 0.00 0.00 0.00 83 1072.1
20260508183724 50 270 0.0 3.0 0.00 0.00 0.00 83 965.4
20260508183225 50 292 1.0 5.0 0.00 0.00 0.00 83 1052.2
20260508182725 50 292 5.0 5.0 0.00 0.00 0.00 83 1087.8
20260508182225 50 292 3.0 4.0 0.00 0.00 0.00 83 1078.4
20260508181824 50 292 1.0 2.0 0.00 0.00 0.00 83 1078.6
20260508181725 50 270 1.0 2.0 0.00 0.00 0.00 83 1044.5
20260508181225 50 315 2.0 4.0 0.00 0.00 0.00 83 1036.5
20260508180725 50 292 2.0 3.0 0.00 0.00 0.00 83 1065.8
20260508180225 50 315 3.0 3.0 0.00 0.00 0.00 82 1028.1
20260508175725 50 292 2.0 3.0 0.00 0.00 0.00 82 1053.4
20260508175225 50 270 1.0 14.0 0.00 0.00 0.00 82 1063.3
20260508174725 50 292 3.0 6.0 0.00 0.00 0.00 82 1036.6
20260508174524 50 315 5.0 6.0 0.00 0.00 0.00 82 1043.8
20260508174225 50 0 2.0 4.0 0.00 0.00 0.00 82 1075.6
20260508173725 50 337 2.0 4.0 0.00 0.00 0.00 82 1069.2
20260508173225 50 337 2.0 5.0 0.00 0.00 0.00 82 1048.1
20260508172725 50 292 2.0 2.0 0.00 0.00 0.00 83 1046.9
20260508172225 50 337 2.0 3.0 0.00 0.00 0.00 83 1041.1
20260508171725 50 315 2.0 4.0 0.00 0.00 0.00 83 1067.0
20260508171224 50 22 2.0 5.0 0.00 0.00 0.00 83 1053.8
20260508170725 50 315 2.0 6.0 0.00 0.00 0.00 83 1065.7
20260508170225 50 0 3.0 5.0 0.00 0.00 0.00 83 1072.1
20260508165725 50 22 3.0 6.0 0.00 0.00 0.00 83 997.1
20260508165225 50 22 2.0 5.0 0.00 0.00 0.00 83 1051.5
20260508164725 50 0 2.0 8.0 0.00 0.00 0.00 82 1057.3
20260508164225 50 22 5.0 7.0 0.00 0.00 0.00 82 1037.5
20260508163924 50 22 5.0 7.0 0.00 0.00 0.00 82 1031.1
20260508163725 50 0 5.0 6.0 0.00 0.00 0.00 82 1049.0
20260508163225 50 0 2.0 8.0 0.00 0.00 0.00 82 1040.9
20260508162725 50 0 3.0 7.0 0.00 0.00 0.00 81 1022.5
20260508162225 50 0 5.0 9.0 0.00 0.00 0.00 81 1050.6
20260508161725 51 22 4.0 8.0 0.00 0.00 0.00 80 1030.4
20260508161225 51 22 4.0 8.0 0.00 0.00 0.00 79 1041.5
20260508160725 51 292 2.0 9.0 0.00 0.00 0.00 79 1047.9
20260508160624 51 0 2.0 9.0 0.00 0.00 0.00 79 1059.5
20260508160225 52 0 9.0 9.0 0.00 0.00 0.00 78 1041.0
20260508155725 52 337 4.0 8.0 0.00 0.00 0.00 78 1044.1
20260508155235 52 0 8.0 8.0 0.00 0.00 0.00 77 1042.3
20260508155225 52 0 8.0 8.0 0.00 0.00 0.00 77 1042.3
20260508154725 52 0 4.0 7.0 0.00 0.00 0.00 77 1039.3
20260508154225 53 0 2.0 5.0 0.00 0.00 0.00 76 1040.9
20260508153725 53 22 5.0 6.0 0.00 0.00 0.00 76 1049.7
20260508153324 53 0 3.0 7.0 0.00 0.00 0.00 76 1022.3
20260508153225 53 337 2.0 7.0 0.00 0.00 0.00 76 1020.8
20260508152725 53 292 2.0 6.0 0.00 0.00 0.00 75 1032.1
20260508152225 53 315 4.0 7.0 0.00 0.00 0.00 75 1042.2
20260508151725 53 337 7.0 8.0 0.00 0.00 0.00 74 988.4
20260508151225 54 315 5.0 11.0 0.00 0.00 0.00 73 1054.0
20260508150725 54 315 2.0 9.0 0.00 0.00 0.00 72 1039.7
20260508150225 54 337 2.0 7.0 0.00 0.00 0.00 72 1036.6
20260508150024 54 337 7.0 25.0 0.00 0.00 0.00 72 1035.2
20260508145725 54 337 3.0 25.0 0.00 0.00 0.00 71 999.1
20260508145225 55 337 5.0 11.0 0.00 0.00 0.00 71 1010.2
20260508144725 55 292 4.0 5.0 0.00 0.00 0.00 71 1028.5
20260508144225 55 0 0.0 6.0 0.00 0.00 0.00 71 1033.4
20260508143725 55 22 3.0 8.0 0.00 0.00 0.00 71 1018.5
20260508143225 55 22 5.0 9.0 0.00 0.00 0.00 71 1051.0
20260508142724 55 0 9.0 9.0 0.00 0.00 0.00 71 1049.0
20260508142225 55 22 3.0 7.0 0.00 0.00 0.00 71 1016.4
20260508141725 55 0 5.0 6.0 0.00 0.00 0.00 71 1010.3
20260508141225 55 315 3.0 6.0 0.00 0.00 0.00 72 1021.9
20260508140725 54 292 4.0 10.0 0.00 0.00 0.00 72 1059.5
20260508140225 54 0 3.0 9.0 0.00 0.00 0.00 72 1062.7
20260508135725 54 292 5.0 9.0 0.00 0.00 0.00 71 1094.1
20260508135424 54 337 3.0 7.0 0.00 0.00 0.00 71 1030.2
20260508135225 54 337 5.0 8.0 0.00 0.00 0.00 71 1036.5
20260508134725 54 0 6.0 6.0 0.00 0.00 0.00 70 1065.8
20260508134225 55 0 6.0 6.0 0.00 0.00 0.00 70 1075.2
20260508133725 55 0 3.0 6.0 0.00 0.00 0.00 70 1042.8
20260508133225 55 337 4.0 7.0 0.00 0.00 0.00 69 1075.3
20260508132725 55 337 4.0 6.0 0.00 0.00 0.00 69 1090.9
20260508132225 55 0 2.0 9.0 0.00 0.00 0.00 69 1072.1
20260508132124 55 67 2.0 9.0 0.00 0.00 0.00 69 1004.1
20260508131725 55 337 2.0 7.0 0.00 0.00 0.00 69 1019.8
20260508131225 56 337 4.0 10.0 0.00 0.00 0.00 68 1052.2
20260508130725 56 292 3.0 6.0 0.00 0.00 0.00 68 1068.9
20260508130225 56 45 2.0 9.0 0.00 0.00 0.00 67 1042.8
20260508125725 56 270 4.0 10.0 0.00 0.00 0.00 67 1084.7
20260508125225 56 292 6.0 8.0 0.00 0.00 0.00 66 1042.8
20260508124824 57 315 6.0 10.0 0.00 0.00 0.00 67 1091.5
20260508124725 57 0 8.0 10.0 0.00 0.00 0.00 67 1024.0
20260508124226 57 292 3.0 8.0 0.00 0.00 0.00 67 1046.0
20260508123725 57 315 7.0 7.0 0.00 0.00 0.00 67 991.6
20260508123225 57 315 4.0 8.0 0.00 0.00 0.00 67 1087.8
20260508122725 56 315 2.0 8.0 0.00 0.00 0.00 68 1084.7
20260508122225 56 292 8.0 8.0 0.00 0.00 0.00 69 1036.6
20260508121725 56 225 2.0 7.0 0.00 0.00 0.00 69 1052.2
20260508121524 55 0 2.0 9.0 0.00 0.00 0.00 69 1049.1
20260508121225 55 0 5.0 9.0 0.00 0.00 0.00 69 1040.2
20260508120725 55 337 6.0 10.0 0.00 0.00 0.00 69 1075.3
20260508120225 55 292 9.0 9.0 0.00 0.00 0.00 69 1039.7
20260508115725 56 315 8.0 8.0 0.00 0.00 0.00 69 1065.8
20260508115226 56 337 5.0 8.0 0.00 0.00 0.00 68 1020.7
20260508114726 56 292 5.0 10.0 0.00 0.00 0.00 68 1001.0
20260508114224 56 292 5.0 9.0 0.00 0.00 0.00 67 1010.4
20260508113725 57 292 5.0 7.0 0.00 0.00 0.00 67 923.6
20260508113225 57 315 4.0 12.0 0.00 0.00 0.00 67 988.4
20260508112725 57 292 4.0 11.0 0.00 0.00 0.00 67 1036.5
20260508112225 57 270 3.0 10.0 0.00 0.00 0.00 67 1084.6
20260508111726 57 270 3.0 7.0 0.00 0.00 0.00 67 1055.3
20260508111227 57 315 3.0 7.0 0.00 0.00 0.00 67 1078.4
20260508110924 57 0 2.0 8.0 0.00 0.00 0.00 66 1094.1
20260508110725 57 292 7.0 11.0 0.00 0.00 0.00 66 988.4
20260508110225 57 315 9.0 10.0 0.00 0.00 0.00 67 1052.2
20260508105725 57 292 2.0 6.0 0.00 0.00 0.00 70 1081.5
20260508105225 56 315 3.0 5.0 0.00 0.00 0.00 70 1007.3
20260508104726 55 292 5.0 6.0 0.00 0.00 0.00 69 1090.9
20260508104225 56 315 3.0 9.0 0.00 0.00 0.00 69 1042.8
20260508103725 56 337 6.0 8.0 0.00 0.00 0.00 67 956.0
20260508103624 57 315 8.0 8.0 0.00 0.00 0.00 67 997.9
20260508103225 57 337 6.0 8.0 0.00 0.00 0.00 67 1081.5
20260508102725 57 270 4.0 4.0 0.00 0.00 0.00 67 1081.5
20260508102226 57 292 0.0 5.0 0.00 0.00 0.00 68 1090.9
20260508101726 57 315 0.0 4.0 0.00 0.00 0.00 67 1072.1
20260508101225 57 22 2.0 6.0 0.00 0.00 0.00 67 1004.1
20260508100725 57 292 2.0 4.0 0.00 0.00 0.00 68 1046.0
20260508100324 57 202 0.0 4.0 0.00 0.00 0.00 68 1052.2
20260508100225 57 315 0.0 4.0 0.00 0.00 0.00 68 1081.5
20260508095725 57 315 3.0 6.0 0.00 0.00 0.00 67 1087.8
20260508095225 57 270 1.0 5.0 0.00 0.00 0.00 67 1084.6
20260508094725 58 292 3.0 9.0 0.00 0.00 0.00 65 1007.9
20260508094225 59 22 5.0 8.0 0.00 0.00 0.00 64 1081.5
20260508093725 60 270 6.0 8.0 0.00 0.00 0.00 64 1030.3
20260508093226 61 315 2.0 5.0 0.00 0.00 0.00 65 1036.6
20260508093025 61 292 4.0 5.0 0.00 0.00 0.00 67 994.7
20260508092725 61 292 2.0 7.0 0.00 0.00 0.00 65 1055.4
20260508092226 61 292 7.0 7.0 0.00 0.00 0.00 66 1036.6
20260508091725 61 292 0.0 4.0 0.00 0.00 0.00 70 881.7
20260508091226 60 292 3.0 3.0 0.00 0.00 0.00 74 1027.1
20260508090726 59 337 1.0 5.0 0.00 0.00 0.00 75 1087.8
20260508090226 57 292 0.0 2.0 0.00 0.00 0.00 79 1039.7
20260508085736 57 270 0.0 7.0 0.00 0.00 0.00 78 1085.2
20260508085725 56 270 0.0 7.0 0.00 0.00 0.00 78 1052.2
20260508085226 56 270 0.0 6.0 0.00 0.00 0.00 78 1081.5
20260508084726 56 337 3.0 4.0 0.00 0.00 0.00 81 1049.1
20260508084226 55 270 1.0 3.0 0.00 0.00 0.00 82 1090.9
20260508083726 54 22 1.0 3.0 0.00 0.00 0.00 84 1090.9
20260508083226 53 22 0.0 3.0 0.00 0.00 0.00 84 1078.4
20260508082726 53 270 2.0 6.0 0.00 0.00 0.00 84 1058.5
20260508082425 52 315 2.0 6.0 0.00 0.00 0.00 84 1020.8
20260508082226 52 292 4.0 6.0 0.00 0.00 0.00 84 1072.1
20260508081726 52 315 4.0 5.0 0.00 0.00 0.00 85 1052.2
20260508081226 53 0 1.0 5.0 0.00 0.00 0.00 86 1049.1
20260508080726 53 315 1.0 2.0 0.00 0.00 0.00 87 1007.3
20260508080226 53 315 0.0 2.0 0.00 0.00 0.00 88 1061.5
20260508075726 52 0 0.0 0.0 0.00 0.00 0.00 88 1007.3
20260508075226 52 247 0.0 3.0 0.00 0.00 0.00 88 1049.1
20260508075125 52 315 2.0 3.0 0.00 0.00 0.00 89 1015.6
20260508074726 51 337 1.0 3.0 0.00 0.00 0.00 89 1097.2
20260508074226 51 22 1.0 4.0 0.00 0.00 0.00 89 1013.5
20260508073726 51 337 3.0 5.0 0.00 0.00 0.00 89 1055.3
20260508073226 50 315 3.0 5.0 0.00 0.00 0.00 89 1010.4
20260508072726 50 0 2.0 6.0 0.00 0.00 0.00 89 978.9
20260508072226 50 337 1.0 7.0 0.00 0.00 0.00 89 997.9
20260508071825 49 0 4.0 5.0 0.00 0.00 0.00 89 1029.5
20260508071726 49 0 2.0 5.0 0.00 0.00 0.00 89 981.4
20260508071226 49 315 4.0 6.0 0.00 0.00 0.00 89 1097.2
20260508070726 49 0 3.0 6.0 0.00 0.00 0.00 88 1004.1
20260508070226 49 0 4.0 5.0 0.00 0.00 0.00 88 1081.5
20260508065726 49 22 4.0 4.0 0.00 0.00 0.00 88 1013.4
20260508065226 49 292 2.0 5.0 0.00 0.00 0.00 88 962.3
20260508064726 49 67 1.0 5.0 0.00 0.00 0.00 88 1041.7
20260508064525 49 0 4.0 4.0 0.00 0.00 0.00 88 1055.3
20260508064226 49 337 2.0 6.0 0.00 0.00 0.00 88 1097.2
20260508063726 49 270 3.0 4.0 0.00 0.00 0.00 88 1022.8
20260508063226 49 0 1.0 4.0 0.00 0.00 0.00 87 1003.4
20260508062726 49 0 2.0 3.0 0.00 0.00 0.00 87 1014.6
20260508062226 49 337 2.0 4.0 0.00 0.00 0.00 87 1008.4
20260508061726 49 45 0.0 6.0 0.00 0.00 0.00 87 957.7
20260508061225 49 22 6.0 6.0 0.00 0.00 0.00 86 929.8
20260508060726 49 0 1.0 4.0 0.00 0.00 0.00 86 932.7
20260508060226 49 315 0.0 6.0 0.00 0.00 0.00 86 1052.2
20260508055726 49 292 5.0 6.0 0.00 0.00 0.00 85 956.0
20260508055226 49 315 2.0 6.0 0.00 0.00 0.00 85 1062.1
20260508054726 50 315 3.0 4.0 0.00 0.00 0.00 85 1090.9
20260508054226 50 0 2.0 6.0 0.00 0.00 0.00 85 1004.1
20260508053925 50 315 2.0 7.0 0.00 0.00 0.00 85 1036.1
20260508053726 50 22 2.0 7.0 0.00 0.00 0.00 85 1052.2
20260508053226 50 315 1.0 3.0 0.00 0.00 0.00 85 932.5
20260508052726 49 247 0.0 6.0 0.00 0.00 0.00 85 1011.8
20260508052226 50 22 5.0 8.0 0.00 0.00 0.00 85 1097.2
20260508051726 50 22 3.0 6.0 0.00 0.00 0.00 84 1052.1
20260508051226 50 337 5.0 5.0 0.00 0.00 0.00 84 962.2
20260508050726 50 0 3.0 5.0 0.00 0.00 0.00 84 1046.0
20260508050625 50 315 4.0 6.0 0.00 0.00 0.00 84 997.8
20260508050226 50 337 3.0 6.0 0.00 0.00 0.00 84 1016.6
20260508045726 50 292 4.0 5.0 0.00 0.00 0.00 84 1052.2
20260508045226 50 337 4.0 7.0 0.00 0.00 0.00 84 1097.2
20260508044726 50 270 5.0 7.0 0.00 0.00 0.00 84 1016.7
20260508044226 50 337 3.0 7.0 0.00 0.00 0.00 84 1049.1
20260508043726 50 315 5.0 8.0 0.00 0.00 0.00 84 1013.0
20260508043325 50 315 4.0 5.0 0.00 0.00 0.00 84 1001.0
20260508043226 50 292 4.0 6.0 0.00 0.00 0.00 84 1057.6
20260508042726 50 337 6.0 6.0 0.00 0.00 0.00 84 1013.5
20260508042226 50 292 3.0 6.0 0.00 0.00 0.00 84 931.3
20260508041726 50 315 6.0 8.0 0.00 0.00 0.00 84 929.8
20260508041226 50 0 2.0 4.0 0.00 0.00 0.00 84 929.3
20260508040726 49 292 1.0 6.0 0.00 0.00 0.00 84 1055.4
20260508040226 49 22 0.0 4.0 0.00 0.00 0.00 84 1011.2
20260508040025 49 0 4.0 4.0 0.00 0.00 0.00 84 967.4
20260508035726 49 337 3.0 4.0 0.00 0.00 0.00 84 963.0
20260508035226 49 337 1.0 6.0 0.00 0.00 0.00 84 976.8
20260508034726 49 292 2.0 6.0 0.00 0.00 0.00 84 1055.5
20260508034226 49 337 2.0 8.0 0.00 0.00 0.00 84 1053.8
20260508033726 49 225 0.0 7.0 0.00 0.00 0.00 84 996.1
20260508033226 49 315 4.0 6.0 0.00 0.00 0.00 84 1039.7
20260508032725 49 315 5.0 8.0 0.00 0.00 0.00 84 972.8
20260508032226 49 337 1.0 8.0 0.00 0.00 0.00 83 1020.1
20260508031726 49 292 4.0 8.0 0.00 0.00 0.00 83 918.9
20260508031226 49 0 0.0 8.0 0.00 0.00 0.00 83 1081.5
20260508030726 49 315 7.0 7.0 0.00 0.00 0.00 83 1007.3
20260508030226 49 292 2.0 7.0 0.00 0.00 0.00 83 977.8
20260508025726 49 247 5.0 6.0 0.00 0.00 0.00 83 1049.1
20260508025425 50 337 3.0 9.0 0.00 0.00 0.00 83 1004.2
20260508025226 50 337 4.0 9.0 0.00 0.00 0.00 82 1053.6
20260508024726 50 292 2.0 6.0 0.00 0.00 0.00 82 974.8
20260508024226 50 0 6.0 7.0 0.00 0.00 0.00 82 1005.1
20260508023726 50 0 4.0 6.0 0.00 0.00 0.00 82 986.4
20260508023226 50 22 5.0 7.0 0.00 0.00 0.00 82 1051.5
20260508022727 50 0 6.0 6.0 0.00 0.00 0.00 82 1016.6
20260508022226 50 45 2.0 6.0 0.00 0.00 0.00 82 1024.1
20260508022125 50 0 6.0 6.0 0.00 0.00 0.00 82 917.5
20260508021726 50 22 2.0 6.0 0.00 0.00 0.00 82 980.7
20260508021226 50 315 4.0 8.0 0.00 0.00 0.00 82 1067.8
20260508020726 50 0 5.0 8.0 0.00 0.00 0.00 81 1055.4
20260508020226 50 0 4.0 5.0 0.00 0.00 0.00 81 1003.4
20260508015726 50 0 5.0 8.0 0.00 0.00 0.00 81 1001.0
20260508015227 50 337 3.0 8.0 0.00 0.00 0.00 81 981.1
20260508014825 50 22 6.0 8.0 0.00 0.00 0.00 81 971.1
20260508014726 50 337 5.0 8.0 0.00 0.00 0.00 81 997.3
20260508014226 50 22 7.0 8.0 0.00 0.00 0.00 80 968.4
20260508013726 50 0 7.0 8.0 0.00 0.00 0.00 80 1033.7
20260508013226 50 22 8.0 10.0 0.00 0.00 0.00 80 922.3
20260508012726 50 337 7.0 8.0 0.00 0.00 0.00 80 1081.5
20260508012226 50 0 2.0 10.0 0.00 0.00 0.00 80 1021.5
20260508011726 50 0 5.0 6.0 0.00 0.00 0.00 80 1081.5
20260508011525 50 0 4.0 6.0 0.00 0.00 0.00 80 966.6
20260508011226 50 337 3.0 6.0 0.00 0.00 0.00 80 1078.3
20260508010726 50 22 2.0 6.0 0.00 0.00 0.00 79 1007.9
20260508010226 50 0 3.0 6.0 0.00 0.00 0.00 79 967.2
20260508005726 50 22 3.0 8.0 0.00 0.00 0.00 79 1013.5
20260508005226 50 0 4.0 6.0 0.00 0.00 0.00 79 972.4
20260508004726 50 45 3.0 8.0 0.00 0.00 0.00 79 1049.0